Date String (YYYY-MM-DD hh:mm:ss) UTC,Instrument flags,Ambient pressure (hPa),Sample flow (lpm),Bypass flow (lpm),Sample temperature (°C),Ambient temperature (°C),ASC tube jacket temperature (°C),LED temperature (°C),Box temperature (°C),Sample RH (%),Span deviation,Mass concentration (μg/m³),Mass concentration (μg/m³),Mass concentration (μg/m³)
DateTimeUTC,F1_M11,P_M11,Q1_M11,Q2_M11,T1_M11,T2_M11,T3_M11,T4_M11,T5_M11,U1_M11,ZSPAN_M11,X0_M11,X2_M11,X1_M11
2022-05-29 01:00:00,,0813.7,5.00,0.00,29.3,27.5,00.0,38.2,31.1,09.4,0000.0,0008.81,0002.32,0001.00
2022-05-29 01:01:00,,0813.7,5.00,0.00,29.3,27.7,00.0,38.2,31.1,09.2,0000.0,0008.89,0002.33,0001.01
2022-05-29 01:02:00,,0814.2,4.99,0.00,29.3,27.9,00.0,38.2,31.2,09.2,0000.0,0009.31,0002.31,0001.01
2022-05-29 01:03:00,,0813.8,5.01,0.00,29.3,28.0,00.0,38.2,31.2,09.3,0000.0,0008.91,0002.32,0001.02
2022-05-29 01:04:00,,0813.7,5.01,0.00,29.4,28.1,00.0,38.2,31.3,09.3,0000.0,0009.39,0002.27,0001.02
2022-05-29 01:05:00,,0813.8,5.00,0.00,29.4,28.2,00.0,38.2,31.3,09.0,0000.0,0009.68,0002.24,0001.02
2022-05-29 01:06:00,,0813.7,4.99,0.00,29.4,28.4,00.0,38.2,31.4,09.7,0000.0,0009.86,0002.17,0001.03
2022-05-29 01:07:00,,0813.8,4.99,0.00,29.5,28.5,00.0,38.3,31.4,09.5,0000.0,0010.71,0002.13,0001.01
2022-05-29 01:08:00,,0813.8,5.00,0.00,29.5,28.5,00.0,38.3,31.4,09.4,0000.0,0010.80,0002.10,0001.00
2022-05-29 01:09:00,,0813.8,5.01,0.00,29.5,28.6,00.0,38.3,31.5,09.6,0000.0,0012.05,0002.18,0001.00
2022-05-29 01:10:00,,0813.8,4.99,0.00,29.5,28.1,00.0,38.3,31.3,08.9,0000.0,0012.48,0002.17,0001.01
2022-05-29 01:11:00,,0813.8,5.01,0.00,29.4,27.2,00.0,38.2,31.1,08.9,0000.0,0011.39,0002.22,0001.03
2022-05-29 01:12:00,,0813.8,4.99,0.00,29.3,26.8,00.0,38.2,30.9,08.9,0000.0,0011.37,0002.25,0001.03
2022-05-29 01:13:00,,0813.8,5.01,0.00,29.3,26.8,00.0,38.1,30.9,09.6,0000.0,0010.57,0002.20,0001.03
2022-05-29 01:14:00,,0813.7,5.01,0.00,29.2,26.9,00.0,38.1,30.9,09.6,0000.0,0010.86,0002.19,0001.02
2022-05-29 01:15:00,,0813.7,4.99,0.00,29.2,27.1,00.0,38.1,30.9,09.7,0000.0,0010.31,0002.23,0001.01
2022-05-29 01:16:00,,0813.7,4.99,0.00,29.2,27.3,00.0,38.1,31.0,09.0,0000.0,0010.01,0002.27,0001.02
2022-05-29 01:17:00,,0813.8,5.00,0.00,29.2,27.5,00.0,38.1,31.0,09.2,0000.0,0010.68,0002.36,0001.01
2022-05-29 01:18:00,,0813.8,5.01,0.00,29.2,27.7,00.0,38.1,31.1,09.7,0000.0,0009.96,0002.38,0001.01
2022-05-29 01:19:00,,0813.7,5.00,0.00,29.2,27.9,00.0,38.1,31.1,10.2,0000.0,0009.82,0002.40,0001.02
2022-05-29 01:20:00,,0813.7,4.99,0.00,29.2,28.0,00.0,38.1,31.2,09.6,0000.0,0008.71,0002.32,0001.01
2022-05-29 01:21:00,,0813.8,5.01,0.00,29.3,28.1,00.0,38.1,31.2,09.2,0000.0,0007.74,0002.29,0001.01
2022-05-29 01:22:00,,0813.7,5.01,0.00,29.3,28.3,00.0,38.1,31.3,10.4,0000.0,0007.67,0002.28,0000.99
2022-05-29 01:23:00,,0813.7,4.99,0.00,29.4,28.4,00.0,38.1,31.3,10.9,0000.0,0007.51,0002.22,0000.98
2022-05-29 01:24:00,,0813.8,4.99,0.00,29.4,28.5,00.0,38.2,31.3,10.6,0000.0,0008.39,0002.26,0000.99
2022-05-29 01:25:00,,0813.7,5.01,0.00,29.4,28.5,00.0,38.2,31.4,10.1,0000.0,0008.08,0002.31,0001.00
2022-05-29 01:26:00,,0813.8,5.00,0.00,29.5,28.6,00.0,38.2,31.4,09.6,0000.0,0008.01,0002.27,0000.99
2022-05-29 01:27:00,,0814.1,5.00,0.00,29.5,28.7,00.0,38.2,31.5,09.7,0000.0,0008.08,0002.27,0000.99
2022-05-29 01:28:00,,0813.9,5.00,0.00,29.5,28.6,00.0,38.3,31.5,09.7,0000.0,0007.44,0002.22,0001.00
2022-05-29 01:29:00,,0814.0,5.01,0.00,29.5,27.8,00.0,38.2,31.3,09.5,0000.0,0007.04,0002.22,0001.01
2022-05-29 01:30:00,,0814.0,4.99,0.00,29.4,27.0,00.0,38.1,31.0,10.3,0000.0,0006.65,0002.20,0001.01
2022-05-29 01:31:00,,0813.7,5.01,0.00,29.3,26.8,00.0,38.1,30.9,09.6,0000.0,0006.83,0002.25,0001.01
2022-05-29 01:32:00,,0813.8,5.00,0.00,29.2,26.8,00.0,38.1,30.9,09.3,0000.0,0007.08,0002.32,0001.01
2022-05-29 01:33:00,,0813.8,4.99,0.00,29.2,27.0,00.0,38.1,30.9,09.5,0000.0,0007.01,0002.30,0001.01
2022-05-29 01:34:00,,0813.8,5.01,0.00,29.2,27.2,00.0,38.1,30.9,10.1,0000.0,0007.10,0002.32,0001.00
2022-05-29 01:35:00,,0813.8,5.00,0.00,29.2,27.4,00.0,38.1,31.0,10.4,0000.0,0006.37,0002.38,0001.00
2022-05-29 01:36:00,,0813.9,4.99,0.00,29.2,27.6,00.0,38.1,31.0,10.0,0000.0,0006.52,0002.34,0000.99
2022-05-29 01:37:00,,0813.8,5.00,0.00,29.2,27.7,00.0,38.1,31.1,10.0,0000.0,0007.49,0002.32,0000.98
2022-05-29 01:38:00,,0813.7,4.99,0.00,29.2,27.9,00.0,38.1,31.1,09.8,0000.0,0007.50,0002.29,0000.98
2022-05-29 01:39:00,,0813.8,5.01,0.00,29.2,28.0,00.0,38.1,31.2,09.9,0000.0,0007.66,0002.33,0000.97
2022-05-29 01:40:00,,0813.8,5.00,0.00,29.3,28.1,00.0,38.1,31.2,09.5,0000.0,0007.66,0002.25,0000.96
2022-05-29 01:41:00,,0813.8,5.00,0.00,29.3,28.2,00.0,38.1,31.2,09.5,0000.0,0007.74,0002.25,0000.95
2022-05-29 01:42:00,,0813.8,5.00,0.00,29.3,28.3,00.0,38.1,31.3,09.5,0000.0,0008.05,0002.18,0000.93
2022-05-29 01:43:00,,0813.8,4.99,0.00,29.4,28.4,00.0,38.2,31.3,09.9,0000.0,0008.11,0002.10,0000.92
2022-05-29 01:44:00,,0813.9,5.01,0.00,29.4,28.5,00.0,38.2,31.4,09.9,0000.0,0008.45,0002.13,0000.93
2022-05-29 01:45:00,,0813.8,5.01,0.00,29.4,28.6,00.0,38.2,31.4,09.8,0000.0,0008.70,0002.13,0000.93
2022-05-29 01:46:00,,0813.8,4.99,0.00,29.5,28.6,00.0,38.2,31.4,09.9,0000.0,0009.28,0002.10,0000.93
2022-05-29 01:47:00,,0813.8,5.00,0.00,29.5,28.7,00.0,38.2,31.5,10.1,0000.0,0009.76,0002.11,0000.93
2022-05-29 01:48:00,,0813.8,5.01,0.00,29.5,28.7,00.0,38.3,31.5,10.2,0000.0,0009.09,0002.18,0000.94
2022-05-29 01:49:00,,0813.8,5.00,0.00,29.5,28.1,00.0,38.2,31.4,10.2,0000.0,0009.20,0002.25,0000.93
2022-05-29 01:50:00,,0813.9,4.99,0.00,29.5,27.4,00.0,38.2,31.2,10.4,0000.0,0009.24,0002.25,0000.93
2022-05-29 01:51:00,,0813.8,5.01,0.00,29.4,27.3,00.0,38.2,31.1,10.6,0000.0,0009.15,0002.27,0000.92
2022-05-29 01:52:00,,0813.8,4.99,0.00,29.3,27.4,00.0,38.2,31.1,10.7,0000.0,0009.14,0002.30,0000.93
2022-05-29 01:53:00,,0813.8,5.01,0.00,29.3,27.5,00.0,38.2,31.1,10.5,0000.0,0008.83,0002.33,0000.93
2022-05-29 01:54:00,,0813.7,5.01,0.00,29.3,27.6,00.0,38.2,31.1,10.2,0000.0,0008.53,0002.33,0000.94
2022-05-29 01:55:00,,0813.7,5.00,0.00,29.3,27.8,00.0,38.2,31.2,10.2,0000.0,0008.42,0002.35,0000.95
2022-05-29 01:56:00,,0813.8,5.00,0.00,29.3,28.0,00.0,38.2,31.2,09.8,0000.0,0008.48,0002.40,0000.94
2022-05-29 01:57:00,,0813.7,5.00,0.00,29.4,28.1,00.0,38.2,31.3,09.7,0000.0,0008.06,0002.38,0000.96
2022-05-29 01:58:00,,0813.8,5.01,0.00,29.4,28.2,00.0,38.2,31.3,09.2,0000.0,0007.05,0002.35,0000.96
2022-05-29 01:59:00,,0813.7,5.00,0.00,29.4,28.3,00.0,38.2,31.3,09.1,0000.0,0006.74,0002.35,0000.97
